Regional Weather Roundup
Issued by NWS

Home | Current Version | Previous Version | Graphics & Text | Print | Product List | Glossary On
Versions: 1 2 3 4 5 6 7 8 9 10 11 12 13 14 15 16 17 18 19 20 21 22 23 24 25 26 27 28 29 30 31 32 33 34 35 36 37 38 39 40 41 42 43 44 45 46 47 48 49 50
000
ASUS43 KMPX 261910
RWRMN
WEATHER ROUNDUP FOR MINNESOTA
NATIONAL WEATHER SERVICE TWIN CITIES/CHANHASSEN MN
200 PM CDT FRI MAY 26 2017


NOTE: "FAIR" INDICATES FEW OR NO CLOUDS BELOW 12,000 FEET WITH NO
SIGNIFICANT WEATHER AND/OR OBSTRUCTIONS TO VISIBILITY. N/A MEANS
CURRENT SKY AND/OR WEATHER CONDITIONS ARE NOT AVAILABLE.

MNZ060>063-068>070-262000-
   Twin Cities Metro

CITY           SKY/WX    TMP DP  RH WIND       PRES   REMARKS
TWIN CITIES    MOSUNNY   75  56  51 S10       29.73F
ST PAUL        SUNNY     75  58  55 S10G18    29.73F
CRYSTAL        SUNNY     75  55  49 SW10      29.71F
BLAINE         MOSUNNY   77  57  50 MISG      29.72F
LAKEVILLE      SUNNY     73  57  56 S9        29.74S
EDEN PRAIRIE   SUNNY     76  57  51 S13       29.72F
SOUTH ST PAUL  SUNNY     74  56  53 S10       29.73F
LAKE ELMO      FAIR      72  59  64 S12       29.75S
$$
MNZ001>005-007-008-013>017-022>024-027-028-262000-
   Northwest Minnesota

CITY           SKY/WX    TMP DP  RH WIND       PRES   REMARKS
BEMIDJI        PTSUNNY   69  45  41 W15       29.68R
HALLOCK        PTSUNNY   68  46  45 W21       29.63S
ROSEAU         CLOUDY    72  48  43 W15G22    29.62F
WARROAD        CLOUDY    72  50  46 SW12G17   29.62F
THIEF RVR FALL PTSUNNY   69  46  43 SW20G25   29.67R
CROOKSTON      MOSUNNY   68  46  45 W21       29.68R
FOSSTON        PTSUNNY   68  45  42 W14G20    29.68S
DETROIT LAKES  MOSUNNY   70  45  40 W12G18    29.72S
MOORHEAD       MOSUNNY   70  43  37 W16       29.71S
PARK RAPIDS    MOSUNNY   70  43  37 W16       29.70R
MAHNOMEN       MOCLDY    69  46  42 W16G23    29.69S
$$
MNZ006-009>011-018-025>026-262000-
   North Central Minnesota

CITY           SKY/WX    TMP DP  RH WIND       PRES   REMARKS
BAUDETTE       PTSUNNY   73  44  35 SW14G22   29.61F
FLAG ISLAND    CLOUDY    61  48  63 S12       29.60S
INTL FALLS     PTSUNNY   70  59  68 SW8       29.63R
WASKISH        CLOUDY    70  52  52 W10       29.65F
BIG FORK       MOSUNNY   75  50  41 SW16      29.65S
LONGVILLE      MOSUNNY   73  48  40 SW8       29.68S
GRAND RAPIDS   PTSUNNY   72  56  57 S9        29.68S
CRANE LAKE     MOSUNNY   72  54  53 S7        29.66F
ORR            MOSUNNY   73  52  46 S7        29.62F
COOK           PTSUNNY   72  54  53 S5        29.66F
WALKER         FAIR      69  44  40 W9        29.68R
$$
MNZ012-019>021-037-262000-
   Northeast Minnesota

CITY           SKY/WX    TMP DP  RH WIND       PRES   REMARKS
DULUTH         MOSUNNY   66  53  63 SE6       29.72S
ELY            MOSUNNY   72  52  49 SW12G24   29.69S
HIBBING        MOSUNNY   71  53  52 S12       29.66F
EVELETH        MOSUNNY   73  46  37 SW14      29.70S
DULUTH HARBOR  MOSUNNY   48  45  87 NE8       29.75R
TWO HARBORS    CLOUDY    68  57  68 SE7       29.71F
SILVER BAY     CLOUDY    61  54  77 E6        29.73F
GRAND MARAIS     N/A     47  43  86 NE9       29.78S
G MARAIS ARPRT CLOUDY    55  46  71 SE6       29.80R
$$
MNZ029>031-032-039>041-046>048-054>057-064-262000-
   West Central Minnesota

CITY           SKY/WX    TMP DP  RH WIND       PRES   REMARKS
FERGUS FALLS   MOSUNNY   70  46  43 W18G24    29.70S
WHEATON        MOSUNNY   70  43  37 W13G20    29.76S
MORRIS         SUNNY     72  48  43 W16G22    29.74S
ALEXANDRIA     MOSUNNY   71  48  43 W20       29.75R
ELBOW LAKE     FAIR      70  48  46 NW14G20   29.74S
WADENA         SUNNY     70  46  43 W14G21    29.72R
GLENWOOD       MOSUNNY   72  48  43 W17       29.76R
APPLETON       SUNNY     72  45  37 W17G24    29.75S
BENSON         MOSUNNY   73  46  38 NW10G22   29.76S
ORTONVILLE     SUNNY     70  45  40 SW15G21   29.76S
MADISON        SUNNY     73  46  38 W21       29.77R
WILLMAR        FAIR      73  52  46 NW14G21   29.76R
$$
MNZ033>034-036-042>043-049>051-058-059-262000-
   Central Minnesota

CITY           SKY/WX    TMP DP  RH WIND       PRES   REMARKS
ST CLOUD       MOSUNNY   74  57  55 W10G16    29.71S
SAUK CENTRE    FAIR      70  50  48 W13G22    29.74R
PAYNESVILLE    SUNNY     73  46  38 W9G17     29.74S
AITKIN         RAIN      72  55  56 S13       29.67S
PINE RIVER     MOSUNNY   72  48  43 SW9       29.72S
BRAINERD       MOSUNNY   74  52  46 SW12G20   29.70R
STAPLES        SUNNY     73  45  35 SW13G20   29.71S
LONG PRAIRIE   FAIR      70  48  46 W9G20     29.74R
LITTLE FALLS   SUNNY     72  45  37 SW10G18   29.72R
LITCHFIELD     SUNNY     75  54  46 W7        29.75R
BUFFALO        MOSUNNY   75  58  54 SW6       29.73S
MAPLE LAKE     MOSUNNY   76  56  50 W8        29.73S
HUTCHINSON     MOSUNNY   76  54  45 W9G18     29.74S
$$
MNZ037-044-045-052-053-262000-
   East Central Minnesota

CITY           SKY/WX    TMP DP  RH WIND       PRES   REMARKS
PRINCETON      SUNNY     77  57  50 S10G16    29.71S
MORA           MOSUNNY   73  55  53 SW9       29.72S
CAMBRIDGE      MOSUNNY   77  57  50 S10       29.70S
RUSH CITY      MOSUNNY   74  58  57 S7        29.72S
MOOSE LAKE     PTSUNNY   73  54  49 S12G17    29.69R
HINCKLEY       FAIR      73  59  60 S12       29.72R
CLOQUET        MOSUNNY   70  54  56 SE5       29.70F
MCGREGOR       MOSUNNY   73  55  53 S13G18    29.68F
$$
MNZ071>073-080-081-089-090-097-098-262000-
   Southwest Minnesota

CITY           SKY/WX    TMP DP  RH WIND       PRES   REMARKS
MONTEVIDEO     MOSUNNY   73  48  40 W13G18    29.76S
CANBY          MOSUNNY   71  48  44 W16G22    29.79R
MARSHALL       SUNNY     71  49  45 NW20G25   29.77S
REDWOOD FALLS  SUNNY     74  48  39 W17G24    29.75R
OLIVIA         SUNNY     73  50  43 W15G21    29.75R
PIPESTONE      SUNNY     70  41  35 W15G22    29.81S
WINDOM         SUNNY     75  46  35 W9G21     29.77S
WORTHINGTON    SUNNY     73  48  41 W18       29.79S
JACKSON        SUNNY     73  50  43 NW12G17   29.79R
TRACY          SUNNY     73  50  44 W12G20    29.79R
SLAYTON        SUNNY     70  48  45 W16G26    29.81R
$$
MNZ065>067-074>077-082>085-091>093-262000-
   South Central Minnesota

CITY           SKY/WX    TMP DP  RH WIND       PRES   REMARKS
MANKATO        PTSUNNY   75  57  53 VRB6      29.75S
NEW ULM        SUNNY     73  52  46 W8        29.74S
ST JAMES       SUNNY     75  54  46 W9        29.76S
FAIRMONT       SUNNY     76  53  44 W9        29.77R
GLENCOE        SUNNY     76  59  56 SW5       29.73S
FARIBAULT      SUNNY     73  57  56 S8        29.76S
OWATONNA       MOSUNNY   75  55  50 S6G17     29.76S
WASECA         SUNNY     73  55  53 SW8       29.77S
ALBERT LEA     SUNNY     73  57  56 S7        29.77S
$$
MNZ078>079-086>088-094>096-262000-
   Southeast Minnesota

CITY           SKY/WX    TMP DP  RH WIND       PRES   REMARKS
ROCHESTER      MOSUNNY   71  58  63 S13G21    29.78S
RED WING       CLOUDY    73  54  49 SW7       29.75S
STANTON        PTSUNNY   74  56  52 S9        29.74S
DODGE CENTER   MOSUNNY   72  54  53 S12       29.78S
WINONA         CLOUDY    70  54  56 SW9       29.79R
AUSTIN         MOSUNNY   72  57  60 S6        29.78S
PRESTON        PTSUNNY   66  55  66 S9        29.81R
$$
ABBREVIATIONS USED IN REMARKS
   TC - TEMPERATURES IN CELSIUS
  WCI - WIND CHILL INDEX
   HX - HEAT INDEX
  VSB - VISIBILITY
$$




USA.gov is the U.S. government's official web portal to all federal, state and local government web resources and services.